Weather History for Columbia, SC

Change the Weather History Date:

Monday, April 28, 2014

  Actual Average Record
Temperature  
Mean Temperature 80 °F 67 °F  
Max Temperature 90 °F 80 °F 94 °F (1986)
Min Temperature 69 °F 54 °F 36 °F (1993)
Degree Days  
Heating Degree Days 0 2  
Month to date heating degree days 74 118  
Since 1 July heating degree days 2550 2527  
Cooling Degree Days 15 4  
Month to date cooling degree days 76 65  
Year to date cooling degree days 84 87  
Growing Degree Days 30 (Base 50)    
Moisture  
Dew Point 63 °F    
Average Humidity 64    
Maximum Humidity 90    
Minimum Humidity 38    
Precipitation  
Precipitation 0.00 in 0.09 in 1.77 in (2013)
Month to date precipitation 2.99 2.44  
Year to date precipitation 13.24 13.36  
Sea Level Pressure  
Sea Level Pressure 29.89 in    
Wind  
Wind Speed 8 mph (SSW)    
Max Wind Speed 18 mph    
Max Gust Speed 26 mph    
Visibility 10 miles    
Events      
T = Trace of Precipitation, MM = Missing Value Source: NWS Daily Summary

Daily Weather History Graph

Daily Weather History Graph

Search for Another Location

Airport:

Trip Planner

Search our weather history database for the weather conditions in past years. The results will help you decide how hot, cold, wet, or windy it might be!

Date:

Astronomy

Apr. 28, 2014 Rise Set
Actual Time 6:38 AM EDT 8:05 PM EDT
Civil Twilight 6:12 AM EDT 8:32 PM EDT
Nautical Twilight 5:40 AM EDT 9:04 PM EDT
Astronomical Twilight 5:07 AM EDT 9:37 PM EDT
Moon 6:12 AM EDT (4/28) 7:43 PM EDT (4/28)
Length of Visible Light 14h 20m
Length of Day
13h 27m
Waning Crescent, 0% of the Moon is Illuminated
Apr 28
Waning Crescent
Apr 29
New
May 6
First Quarter
May 14
Full
May 21
Last Quarter

Hourly Weather History & Observations

Time (EDT) Temp. Heat Index Dew Point Humidity Pressure Visibility Wind Dir Wind Speed Gust Speed Precip Events Conditions
12:56 AM 73.9 °F - 60.1 °F 62% 29.94 in 10.0 mi SSW 5.8 mph - N/A   Overcast
1:56 AM 73.9 °F - 60.1 °F 62% 29.94 in 10.0 mi SSW 8.1 mph - N/A   Overcast
2:56 AM 72.0 °F - 60.1 °F 66% 29.92 in 10.0 mi SSW 5.8 mph - N/A   Overcast
3:56 AM 71.1 °F - 61.0 °F 70% 29.93 in 10.0 mi SSW 6.9 mph - N/A   Scattered Clouds
4:56 AM 70.0 °F - 62.1 °F 76% 29.92 in 10.0 mi SW 4.6 mph - N/A   Scattered Clouds
5:56 AM 69.1 °F - 64.0 °F 84% 29.91 in 10.0 mi SSW 4.6 mph - N/A   Scattered Clouds
6:56 AM 69.1 °F - 64.9 °F 87% 29.93 in 8.0 mi SSW 4.6 mph - N/A   Mostly Cloudy
7:56 AM 70.0 °F - 66.9 °F 90% 29.93 in 6.0 mi SSW 5.8 mph - N/A   Scattered Clouds
8:56 AM 75.0 °F - 66.9 °F 76% 29.93 in 10.0 mi SSW 5.8 mph - N/A   Scattered Clouds
9:56 AM 78.8 °F - 66.2 °F 65% 29.93 in 10.0 mi South 9.2 mph - N/A   Scattered Clouds
10:56 AM 82.0 °F 84.9 °F 68.0 °F 62% 29.91 in 10.0 mi Variable 4.6 mph - N/A   Mostly Cloudy
11:56 AM 84.0 °F 86.5 °F 66.9 °F 56% 29.91 in 10.0 mi South 9.2 mph - N/A   Mostly Cloudy
12:56 PM 86.0 °F 88.2 °F 66.0 °F 51% 29.90 in 10.0 mi South 16.1 mph - N/A   Mostly Cloudy
1:56 PM 86.0 °F 87.3 °F 64.0 °F 48% 29.88 in 10.0 mi SSW 12.7 mph 20.7 mph N/A   Mostly Cloudy
2:56 PM 87.1 °F 87.5 °F 62.1 °F 43% 29.88 in 10.0 mi SW 16.1 mph 20.7 mph N/A   Mostly Cloudy
3:56 PM 87.1 °F 86.7 °F 60.1 °F 40% 29.86 in 10.0 mi SW 13.8 mph 20.7 mph N/A   Mostly Cloudy
4:56 PM 89.1 °F 88.8 °F 60.1 °F 38% 29.83 in 10.0 mi SSW 12.7 mph - N/A   Mostly Cloudy
5:56 PM 88.0 °F 87.1 °F 59.0 °F 37% 29.83 in 10.0 mi WSW 11.5 mph 25.3 mph N/A   Scattered Clouds
6:56 PM 84.9 °F 85.0 °F 61.0 °F 44% 29.82 in 10.0 mi WSW 10.4 mph - N/A   Scattered Clouds
7:56 PM 82.0 °F 83.0 °F 62.1 °F 51% 29.84 in 10.0 mi West 9.2 mph - N/A   Scattered Clouds
8:56 PM 79.0 °F - 63.0 °F 58% 29.85 in 10.0 mi SW 4.6 mph - N/A   Scattered Clouds
9:56 PM 78.1 °F - 64.0 °F 62% 29.86 in 10.0 mi Calm Calm - N/A   Mostly Cloudy
10:56 PM 75.9 °F - 64.9 °F 69% 29.87 in 10.0 mi Calm Calm - N/A   Mostly Cloudy
11:56 PM 73.9 °F - 64.9 °F 73% 29.85 in 10.0 mi SE 3.5 mph - N/A   Mostly Cloudy